Location: Home
(42.5358°N, 72.7383°W)
Time: 12:18:41
(UTC-05:00)

A-11 Canister half - Pass Details

Date: 06 December 2021
Orbit: 1524 x 1684 km, 47.3° (Epoch: 26 January)

Event Time Altitude Azimuth Distance (km) Brightness Sun altitude
Rises 07:33:42 0° 296° (WNW) 4,905 11.0 3.4°
Reaches altitude 10° 07:37:05 10° 290° (WNW) 3,897 10.5 3.9°
Maximum altitude 07:46:10 42° 224° (SW) 2,159 9.9 5.2°
Drops below altitude 10° 07:54:58 10° 158° (SSE) 3,767 12.3 6.5°
Sets 07:58:12 0° 151° (SSE) 4,728 13.1 7.0°
